GFSMA_con_mucape_126.txt.gz
CAPE
1846 2278 2631 2226 1722 1394 1371 1508 1885 2060 2024 1463 1229 923 710 636 563 508 427 417 364 537 1643 2017 2200 2090 2051 1685 1361 1196 1154 995 762 523 475 471 400 475 359 293 220 156 155
1805 1900 1941 2038 2242 1421 1392 1283 1380 1472 1627 2051 1587 1138 929 753 616 502 526 480 372 442 1170 1747 1705 1765 2179 2049 1434 1187 1188 1000 722 508 490 405 271 218 245 200 147 82 130
1046 1149 980 1221 1093 1069 1219 1256 1181 1118 1158 1682 1757 1670 1013 927 802 568 593 826 530 457 612 608 652 1337 2016 2182 1712 1300 1160 883 693 507 356 351 230 218 180 165 118 92 96
629 265 270 649 883 1042 1155 1188 1113 1475 1078 1030 1085 1635 1024 974 900 801 585 864 749 435 485 422 435 649 1260 1945 2057 1580 1404 984 696 433 258 298 227 143 127 142 112 88 74
249 260 156 248 459 418 849 912 986 930 925 1004 999 1005 871 1018 859 831 706 880 869 607 560 696 571 434 741 1186 1870 1705 1537 1304 972 670 386 227 176 129 117 131 116 93 74
31 77 155 189 81 48 143 278 408 529 792 894 879 761 642 647 775 869 775 884 1005 804 819 805 702 510 306 639 1187 1689 1391 1295 1082 918 617 255 219 121 126 118 119 98 77
0 12 75 55 82 58 46 104 57 46 199 429 698 460 291 343 475 615 682 812 879 933 909 907 730 594 370 216 538 1192 1536 1476 1370 1168 675 381 180 117 80 122 96 84 53
0 0 0 0 0 40 57 42 3 3 0 113 350 209 143 73 155 290 329 341 456 638 865 944 722 639 407 325 241 483 1142 1312 1340 1147 830 338 161 84 100 118 74 67 44
0 0 0 0 0 0 0 81 74 11 10 126 235 264 145 68 66 90 197 201 206 166 394 720 766 648 436 363 284 213 298 555 613 762 635 358 149 106 65 94 64 50 41
0 0 0 0 0 0 0 0 0 0 1 6 12 200 202 128 53 20 44 85 82 77 121 250 617 664 548 450 314 170 125 169 104 120 268 290 195 182 104 118 103 66 9
0 0 0 0 0 0 0 0 0 0 25 27 114 91 146 150 107 20 4 28 28 18 94 149 276 539 598 580 428 305 175 99 69 8 0 0 0 25 89 122 119 86 58
0 0 0 0 0 0 0 0 0 0 0 0 42 170 207 65 47 3 8 0 0 0 21 104 104 121 513 575 520 424 296 185 84 45 0 0 0 6 18 44 148 128 54
0 0 0 0 0 0 0 0 0 0 0 0 0 28 302 394 204 99 75 42 14 18 0 42 57 67 155 384 574 510 357 237 143 67 16 0 0 0 4 0 11 53 7
0 0 0 0 0 0 0 0 0 0 0 0 0 0 36 213 520 131 72 61 29 4 0 0 21 47 69 395 458 578 393 241 183 98 36 0 0 0 0 0 2 4 39
0 0 0 0 0 0 0 0 0 0 0 0 0 0 0 85 352 229 163 57 53 0 0 0 0 22 51 107 279 225 298 247 157 131 62 0 0 0 0 0 0 23 40
0 0 0 0 0 0 0 0 0 0 0 0 0 0 0 0 130 155 150 110 65 55 0 0 21 113 125 99 264 141 137 158 151 130 77 16 0 0 0 0 1 10 26
0 0 0 0 0 0 0 0 0 0 0 0 0 0 0 0 3 167 197 211 96 168 8 43 74 121 162 137 175 191 83 99 95 121 96 58 0 0 0 1 5 10 8
0 0 0 0 0 0 0 0 0 0 0 0 0 0 0 0 0 16 236 239 183 241 192 119 184 230 214 213 259 520 222 121 96 85 99 73 47 3 0 7 2 5 29
0 0 0 0 0 0 0 0 0 0 0 0 0 0 0 0 0 2 38 209 333 352 263 253 202 289 315 377 242 103 255 333 303 82 108 93 97 65 71 67 16 10 6
0 0 0 0 0 0 0 0 0 0 0 0 0 0 0 4 1 8 26 57 318 424 293 226 232 230 210 298 304 220 149 244 287 79 71 201 97 66 11 1 4 9 12
0 0 0 0 0 0 0 0 0 0 0 0 0 0 0 0 0 2 5 41 106 379 297 286 283 363 521 606 213 236 141 134 134 209 195 68 112 12 19 0 0 0 0
0 0 0 0 0 6 7 3 0 0 4 0 0 1 0 0 0 2 0 30 39 361 302 347 479 181 107 584 583 301 181 75 40 29 25 35 52 12 13 0 0 0 0
0 0 0 0 0 0 0 0 0 0 3 6 3 0 4 2 5 10 7 7 96 240 181 288 307 231 181 226 528 269 161 75 29 51 59 47 62 56 8 3 0 0 0
0 0 0 0 0 0 0 0 0 0 0 1 0 0 1 8 6 26 14 0 141 149 296 252 291 306 199 297 379 266 148 79 9 39 63 41 51 50 13 12 2 0 0
0 0 0 0 0 0 0 0 0 0 0 0 0 0 0 44 38 41 38 79 72 142 144 257 271 233 328 372 362 207 189 30 11 2 21 1 27 7 0 2 3 0 0
0 0 0 0 0 0 0 0 0 0 0 0 0 0 0 0 53 50 22 37 70 92 118 162 85 175 173 236 210 240 7 3 4 0 0 3 2 13 0 1 9 4 0

GFSMA_con_mucape_129.txt.gz
CAPE
2090 1757 1914 1691 1619 1625 1983 1962 1949 1789 1764 1640 1735 1739 1518 1298 1136 1124 1133 549 356 375 995 1565 2044 2119 2015 1771 1426 1382 1245 1132 999 675 537 599 573 362 311 370 254 212 219
1957 1986 1805 1692 1476 1395 1270 2182 2161 1682 1708 1758 1723 1312 1486 1478 1306 1243 1041 1058 377 294 338 1314 1965 2259 2347 1955 1323 1364 1300 1200 1063 685 490 392 334 330 306 252 205 176 171
2068 1952 1801 1560 1762 1526 1045 1348 1530 1783 1799 1340 1194 1449 1215 1419 1439 1396 1166 1047 968 639 326 417 1269 1254 1528 1831 1505 1348 1251 1088 1006 728 542 399 290 264 164 175 168 146 138
1056 884 1030 947 920 984 1078 996 1177 1293 1306 1427 1362 1185 1252 1042 1388 1523 1470 1112 968 1088 876 350 504 579 555 1188 1864 1643 1465 1141 1006 851 593 367 253 217 143 107 147 105 95
185 182 249 639 514 375 688 654 357 570 1125 1092 1248 1089 1106 1228 1212 1441 1426 1343 1239 1151 1207 582 372 380 385 476 1186 1873 1648 1530 1229 991 705 391 260 194 133 90 123 104 102
0 16 47 77 109 178 443 223 12 113 1035 1696 1358 1370 1454 1361 1270 1220 1223 1196 1076 1150 1376 1030 871 530 649 503 578 1373 1892 1739 1678 1285 941 566 326 203 111 82 87 116 111
0 0 10 42 52 97 74 143 428 330 163 518 699 878 944 980 791 767 915 919 813 869 902 891 774 742 735 650 481 788 1599 1722 1799 1587 1047 576 373 156 87 41 62 103 107
0 0 0 0 0 0 3 51 90 102 156 490 528 561 245 503 308 422 527 688 594 565 658 612 549 546 713 888 689 398 928 1402 1501 1395 1077 511 355 170 85 74 56 89 102
0 0 0 0 0 0 0 0 4 100 97 221 270 402 198 404 181 159 211 136 134 248 279 276 247 247 380 672 609 475 288 655 1008 1170 939 488 293 206 101 59 73 69 86
0 0 0 0 0 0 0 0 0 0 3 37 251 499 198 123 61 120 40 33 21 37 96 169 199 222 199 434 630 512 329 264 423 768 734 631 439 318 236 128 74 96 98
0 0 0 0 0 0 0 0 0 0 0 0 0 397 42 29 213 204 106 8 57 35 44 17 73 224 174 165 323 534 410 306 184 285 453 433 469 355 234 156 66 102 86
0 0 0 0 0 0 0 0 0 0 0 0 0 0 90 133 49 136 154 96 46 16 24 0 8 160 322 167 114 349 494 452 304 160 125 97 77 61 75 126 185 137 130
0 0 0 0 0 0 0 0 0 0 0 0 0 0 0 0 58 49 144 224 60 0 8 0 0 51 211 550 183 107 395 551 375 298 172 89 45 2 0 0 10 71 106
0 0 0 0 0 0 0 0 0 0 0 0 0 0 0 0 18 83 77 347 206 76 4 0 0 1 192 293 157 113 62 348 450 377 298 174 92 21 0 0 0 1 1
0 0 0 0 0 0 0 0 0 0 0 0 0 0 0 0 2 16 143 190 246 211 102 86 0 162 298 391 252 134 59 78 366 475 397 245 145 65 41 0 2 0 0
0 0 0 0 0 0 0 0 0 0 0 0 0 0 0 0 10 8 63 186 147 133 349 91 156 188 286 237 253 155 108 51 77 337 409 247 166 86 35 0 0 0 0
0 0 0 0 0 0 0 0 0 0 0 0 0 0 0 0 0 20 4 201 93 161 73 434 279 206 200 321 197 140 138 22 28 42 207 226 172 97 41 0 0 2 0
0 0 0 0 0 0 0 0 0 0 0 0 0 0 0 0 0 0 42 44 181 99 119 80 560 436 421 487 533 277 79 40 41 31 101 143 183 112 66 0 1 0 3
0 0 0 0 0 0 0 0 0 0 0 0 0 0 0 0 0 0 4 41 39 270 134 141 113 888 439 440 411 216 93 61 89 58 65 122 168 141 92 25 1 1 1
0 0 0 0 0 0 0 0 0 0 0 0 0 0 0 0 0 0 0 10 68 79 163 98 93 142 267 218 239 125 88 117 180 121 106 111 150 166 131 90 29 13 7
0 0 0 0 0 0 1 1 0 0 0 0 0 0 0 0 0 2 6 0 41 84 148 187 46 108 115 173 206 124 102 147 189 83 214 132 122 179 183 148 131 83 34
0 0 0 0 0 0 0 0 0 1 2 0 0 0 1 0 6 2 1 0 2 2 52 207 25 97 265 285 126 127 126 186 316 120 223 298 89 210 190 124 149 79 48
0 0 0 0 0 0 0 0 0 0 0 0 4 13 9 13 12 3 0 0 1 9 5 27 24 4 196 287 367 202 133 89 404 142 198 181 171 109 166 138 120 29 3
0 0 0 0 0 0 0 0 0 0 0 0 0 0 0 1 7 6 2 1 2 0 3 6 5 11 97 185 312 211 190 143 148 290 211 191 89 257 118 26 29 41 27
0 0 0 0 0 0 0 0 0 0 0 0 0 0 0 0 0 0 0 0 0 8 5 7 0 29 131 133 153 120 143 137 63 337 289 215 121 35 65 48 27 27 14
0 0 0 0 0 0 0 0 0 0 6 1 0 0 0 0 0 0 0 0 0 2 0 2 33 5 9 154 164 194 206 218 152 313 209 42 27 38 6 1 27 4 19

GFSMA_con_mucape_132.txt.gz
CAPE
2707 2504 2418 2171 2145 2392 2417 2331 2289 2354 2454 2328 2200 2051 1935 1821 1635 1372 1360 972 630 401 973 1293 1609 1968 1915 1507 1345 1384 1330 1298 1041 943 727 565 529 486 477 457 343 374 322
2284 2145 2472 2443 2423 2357 2401 2409 2165 2144 2311 2087 1881 1996 1994 1958 1744 1699 1485 1357 750 370 405 905 1372 1939 2332 1861 1275 1320 1357 1285 1138 958 787 536 398 289 233 279 215 258 276
1376 1610 2069 2018 2123 2351 2352 2119 2143 2011 1924 2066 2077 2105 2020 2194 1994 1870 1816 1677 1102 628 318 268 846 1581 2171 2137 1364 1244 1215 1129 1072 966 775 513 366 272 207 156 114 161 202
1492 1156 1005 1481 1524 1723 1503 1497 1848 1902 1692 2036 1930 1959 1968 2082 2024 2002 1893 1779 1664 1283 703 645 484 806 1157 1390 1646 1520 1358 1143 1054 1025 804 540 368 288 194 132 115 110 117
365 453 332 702 793 769 975 1250 1504 1692 1386 1366 1584 1735 1987 1968 1912 1736 1629 1760 1804 1620 1334 871 784 427 464 496 823 1084 1724 1371 1143 1106 883 577 402 265 187 126 101 89 115
76 35 20 23 35 66 263 788 1113 1288 869 484 694 1314 1191 1524 1917 1606 1748 1441 1646 1700 1817 1415 1092 821 234 313 267 822 1384 1913 1639 1414 1008 780 500 287 175 132 114 106 114
0 0 0 0 0 0 2 178 538 607 997 641 406 563 132 24 1280 1448 1613 1465 1438 1628 1762 1662 1848 1529 725 272 280 475 977 1721 1894 1725 1032 758 560 342 195 108 89 97 118
0 0 0 0 0 0 0 3 9 207 347 527 623 602 316 236 1193 1064 1707 1475 1529 1438 1506 1564 1362 1508 1396 1337 802 485 609 1181 1619 1610 1271 733 525 351 212 97 79 81 87
0 0 0 0 0 0 0 0 1 7 11 117 302 528 373 357 622 1455 1134 1370 1385 1289 1200 1175 1102 1125 1242 1328 912 710 536 371 655 1216 1050 765 509 319 239 112 89 76 60
0 0 0 0 0 0 0 0 0 0 4 0 15 165 485 779 469 588 466 782 964 566 717 452 370 396 312 665 577 671 702 444 341 445 756 771 549 343 157 116 69 40 54
0 0 0 0 0 0 0 0 0 0 0 2 9 20 2 495 1066 647 193 263 220 77 101 126 186 252 296 172 285 433 416 507 423 235 380 715 640 384 208 128 55 30 42
0 0 0 0 0 0 0 0 0 0 0 0 4 14 17 2 209 463 432 273 199 235 129 133 211 100 115 84 70 71 250 315 345 338 154 227 575 502 216 199 165 137 84
0 0 0 0 0 0 0 0 0 0 0 0 0 1 8 10 4 72 161 479 466 432 302 205 66 89 77 243 107 35 63 172 212 264 279 189 187 364 331 194 149 162 146
0 0 0 0 0 0 0 0 0 0 0 0 0 0 0 1 7 0 30 87 582 518 389 335 334 137 160 64 158 48 135 81 97 124 229 320 189 114 138 134 92 47 17
0 0 0 0 0 0 0 0 0 0 0 0 0 0 0 0 0 9 12 42 258 326 333 509 730 265 70 53 12 112 447 94 63 30 38 250 316 213 145 89 65 38 0
0 0 0 0 0 0 0 0 0 0 0 0 0 0 0 0 0 0 13 16 42 235 382 123 498 582 290 49 136 355 419 128 72 35 12 54 419 334 255 172 112 55 23
0 0 0 0 0 0 0 0 0 0 0 0 0 0 0 0 0 0 0 27 32 260 272 382 397 541 713 394 303 332 349 502 206 41 15 28 242 438 395 279 180 82 36
0 0 0 0 0 0 0 0 0 0 0 0 0 0 0 0 0 0 0 0 33 38 356 381 348 507 864 771 599 604 544 286 467 98 49 40 44 312 478 312 203 92 26
0 0 0 0 0 0 0 0 0 0 0 0 0 0 0 0 0 0 0 0 0 30 271 211 487 317 581 721 745 700 942 663 531 175 104 38 41 63 380 294 204 114 30
0 0 0 0 0 0 0 0 0 0 0 0 0 0 0 0 0 0 0 0 0 0 79 220 346 499 607 549 681 774 500 547 294 58 42 47 44 43 159 228 216 148 60
0 0 0 0 0 0 0 0 0 0 0 0 0 0 0 0 0 0 0 0 2 2 11 80 223 288 525 533 252 178 396 306 142 50 67 60 101 53 79 233 263 204 136
0 0 0 0 0 0 0 0 0 0 0 0 1 0 0 0 0 0 0 0 1 4 5 12 81 176 215 427 204 164 125 353 119 13 70 56 122 114 100 213 292 264 199
0 0 0 0 0 0 0 0 0 0 0 0 0 0 3 2 3 7 2 0 1 8 5 2 6 7 12 15 16 0 37 110 46 39 76 41 12 46 255 208 251 268 216
0 0 0 0 0 0 0 0 0 0 0 0 0 0 0 0 0 0 5 14 20 19 8 4 9 7 2 5 25 10 3 43 100 107 49 15 40 81 121 494 271 264 251
0 0 0 0 0 0 0 0 0 0 0 0 0 0 0 0 0 0 0 8 5 9 2 1 0 3 10 11 0 4 0 2 5 240 101 44 27 24 298 211 441 275 288
0 0 0 0 0 0 0 0 0 0 0 0 0 0 2 0 0 0 0 0 0 0 0 0 0 3 0 0 0 0 3 33 52 83 114 146 85 9 46 176 240 306 93

GFSMA_con_mucape_135.txt.gz
CAPE
2847 2832 3049 2652 2512 2715 2420 2454 2445 2228 2207 2417 2226 2314 2028 2100 1720 1159 1084 893 862 810 1232 1442 1585 2002 2288 1812 1483 1487 1496 1379 1091 923 680 593 473 497 517 377 487 403 410
1655 1598 2607 2482 2895 2591 2782 2295 2187 2031 2061 2197 1975 2138 2187 2323 1972 2280 1648 1323 861 719 695 1434 1691 1880 2296 1958 1432 1262 1296 1349 1219 1043 774 576 453 369 307 247 206 280 307
1633 2031 1578 1806 1777 2038 1924 1628 955 1645 2209 2085 1664 1971 2127 2283 2106 1883 1996 1865 1028 938 769 431 1143 1592 1901 2241 1500 1165 1205 1122 1132 1103 825 577 419 347 199 149 169 133 178
943 1356 1243 765 476 595 1028 992 351 270 445 1055 1247 1953 2020 2190 2161 2169 2226 1893 1979 1791 1065 738 308 739 1073 1528 1923 1495 1311 1098 1041 1052 860 578 439 295 189 91 100 82 155
397 369 203 34 4 236 472 992 1349 1315 1366 1595 936 1370 1915 1949 2031 1790 1729 1922 2016 1980 1972 1060 757 338 411 867 1616 1821 1638 1420 1197 1120 956 652 471 316 234 134 59 47 93
190 215 195 128 45 20 1 57 319 626 1326 1403 1296 1263 1408 1518 1810 2019 1681 1554 1787 2048 1958 2098 1163 748 502 409 901 1295 1361 1633 1566 1370 1145 855 600 384 216 130 69 60 64
0 0 0 0 0 0 0 0 11 83 269 732 554 676 1107 1218 1150 1440 2124 1836 1415 1609 1810 1769 1800 1755 897 625 346 701 1120 1296 1705 1565 1192 928 644 456 347 199 81 59 68
6 2 0 0 0 0 0 0 3 18 47 112 334 384 491 718 1008 1078 587 127 87 797 1213 1462 1564 2017 1795 928 549 319 641 1177 1501 1526 1111 797 634 488 351 256 155 63 67
0 0 0 0 0 0 0 0 0 4 1 10 79 167 354 278 411 788 166 271 117 966 1409 1625 1478 1709 1908 1875 1046 555 325 320 752 1270 1072 835 552 468 385 297 258 93 55
0 0 0 0 0 0 0 0 0 0 0 0 0 4 174 278 231 347 768 892 1003 1122 1412 1609 1567 1443 1591 1981 1493 1241 725 488 387 487 1033 858 631 383 305 245 217 117 55
0 0 0 0 0 0 0 0 0 0 0 0 0 0 7 27 50 465 362 437 673 1074 1216 1287 1205 1010 1026 1373 1565 1340 729 734 562 463 359 841 648 416 300 223 160 107 73
0 0 0 0 0 0 0 0 0 0 0 0 0 0 0 15 3 106 301 395 410 379 854 1009 1030 627 308 280 324 486 540 379 577 563 408 344 484 433 297 197 126 93 77
0 0 0 0 0 0 0 0 0 0 0 0 0 0 0 0 16 16 36 14 19 310 409 624 612 433 181 123 338 144 92 283 301 347 393 374 312 385 421 252 149 119 95
0 0 0 0 0 0 0 0 0 0 0 0 0 0 0 0 0 9 15 56 21 9 259 394 316 682 628 273 94 93 72 18 132 274 287 300 299 257 328 436 314 151 94
0 0 0 0 0 0 0 0 0 0 0 0 0 0 0 0 0 0 0 30 48 24 12 60 491 602 906 763 272 307 170 88 48 77 171 195 192 244 234 203 327 324 163
0 0 0 0 0 0 0 0 0 0 0 0 0 0 0 0 0 0 0 0 32 35 18 7 134 633 659 604 393 276 195 152 70 58 40 85 125 138 170 238 184 223 212
0 0 0 0 0 0 0 0 0 0 0 0 0 0 0 0 0 0 0 0 2 42 39 24 52 300 504 381 302 381 334 216 92 58 87 84 84 54 62 136 279 209 155
0 0 0 0 0 0 0 0 0 0 0 0 0 0 0 0 0 0 0 0 0 0 44 46 21 99 441 550 593 90 389 369 400 240 151 133 111 56 35 48 297 357 291
0 0 0 0 0 0 0 0 0 0 0 0 0 0 0 0 0 0 0 0 0 0 0 28 22 49 271 483 512 528 551 559 634 389 301 228 180 109 39 24 171 452 416
0 0 0 0 0 0 0 0 0 0 0 0 0 0 0 0 0 0 0 0 0 0 0 0 34 33 298 500 484 529 454 614 642 475 307 346 250 142 100 34 24 172 485
0 0 0 0 0 0 0 0 0 0 0 0 0 0 0 1 0 0 0 0 0 0 0 0 5 52 157 292 526 609 548 626 724 582 378 246 132 78 71 59 26 44 393
0 0 0 0 0 0 0 0 0 0 0 0 0 0 0 0 0 8 4 0 0 0 0 4 2 5 3 10 16 17 71 430 522 153 179 25 173 59 68 61 52 41 141
0 0 0 0 0 0 0 0 0 0 0 0 0 0 0 0 0 0 3 7 9 3 0 4 13 7 7 1 3 8 4 13 63 59 30 9 86 40 53 42 47 82 71
0 0 0 0 0 0 0 0 0 0 0 0 0 0 0 0 0 0 0 1 6 9 9 8 9 7 10 7 1 6 6 1 2 4 6 8 2 39 21 29 20 13 29
0 0 0 0 0 0 0 0 0 0 0 0 0 0 0 0 0 0 0 0 0 0 0 2 1 4 14 16 16 13 0 0 1 0 0 0 38 105 89 5 2 33 18
0 0 0 0 0 0 0 0 0 0 0 0 0 0 0 0 0 0 0 0 0 0 0 0 0 0 0 2 9 7 0 11 0 0 0 0 1 3 5 17 21 9 42

GFSMA_con_mucape_138.txt.gz
CAPE
1269 1498 1795 1971 1529 1598 1372 1303 1148 1251 1299 1420 1515 1147 1415 1424 1002 1010 839 755 864 1401 1979 1822 1776 2050 2185 1728 1421 1345 1425 1356 1217 1030 671 535 521 595 637 485 450 557 555
1590 1538 1174 1061 1380 1378 1345 1168 996 859 717 411 543 1323 1537 1669 1771 1449 1564 899 779 812 1268 1771 2033 2258 2444 2365 1605 1314 1348 1348 1255 1068 815 546 452 431 469 458 388 351 357
1323 1220 1000 593 1007 821 665 736 744 636 307 21 68 73 846 1162 1494 1598 1667 1514 1252 1075 820 978 1317 1729 2084 2338 1833 1294 1161 1079 1150 1110 842 589 447 388 342 355 308 239 263
682 916 913 785 536 156 149 252 471 582 206 71 0 7 274 840 987 1135 1507 1581 1333 1287 1137 950 833 919 1300 1892 2233 1655 1327 1063 1069 1083 912 651 455 358 334 258 210 141 158
121 95 92 140 125 30 0 8 20 174 630 387 125 197 282 717 910 921 1004 1260 1484 1336 1374 1296 1094 879 590 809 1527 2244 1979 1392 1152 1130 996 745 528 391 309 238 159 108 91
2 2 7 37 57 62 24 12 0 19 163 191 559 678 835 907 930 950 1078 1176 1307 1183 1104 1253 1209 1017 873 604 586 1278 2203 1934 1550 1366 1160 908 630 473 347 243 174 94 84
0 0 0 0 0 0 0 0 0 0 0 45 86 365 410 455 594 803 829 889 972 1012 896 1355 1227 1130 1063 811 629 768 1773 2278 1851 1543 1223 938 682 551 440 351 269 182 105
0 0 0 0 0 0 0 0 0 0 0 0 95 114 139 161 422 568 537 549 557 867 1062 949 1031 1353 1161 870 845 537 1067 1762 1770 1655 1197 844 709 576 519 448 388 226 142
0 0 0 0 0 0 0 0 0 0 0 0 0 54 107 154 93 175 452 577 500 291 194 179 438 732 1062 1112 1013 859 579 907 973 1207 1229 837 592 508 468 467 429 346 213
0 0 0 0 0 0 0 0 0 0 0 0 2 0 9 42 54 4 25 11 308 277 289 233 542 627 639 761 881 743 710 467 547 795 1124 991 570 456 403 403 397 348 267
0 0 0 0 0 0 0 0 0 0 0 0 0 6 10 0 0 4 0 0 1 348 486 635 604 584 636 738 626 786 766 655 379 396 688 1011 744 463 398 341 340 322 310
0 0 0 0 0 0 0 0 0 0 0 0 0 0 0 7 0 0 0 0 0 4 64 260 625 746 727 731 832 797 702 658 563 306 248 527 854 633 402 343 316 277 274
0 0 0 0 0 0 0 0 0 0 0 0 0 0 0 0 0 5 0 0 0 0 0 20 86 391 578 616 383 375 429 448 604 520 469 375 414 636 568 388 292 286 248
0 0 0 0 0 0 0 0 0 0 0 0 0 0 0 0 0 0 0 0 0 0 0 0 0 26 336 281 158 138 95 101 78 388 312 482 379 319 453 450 330 265 257
0 0 0 0 0 0 0 0 0 0 0 0 0 0 0 0 0 0 0 0 0 0 0 0 0 0 0 216 237 120 65 87 60 92 377 446 381 303 315 320 358 325 281
0 0 0 0 0 0 0 0 0 0 0 0 0 0 0 0 0 0 0 0 0 0 0 0 0 1 0 0 91 142 111 66 86 63 170 211 184 209 205 298 300 360 379
0 0 0 0 0 0 0 0 0 0 0 0 0 0 0 0 0 0 0 0 0 0 0 0 0 0 0 5 0 33 234 82 158 92 61 46 126 171 155 107 222 315 319
0 0 0 0 0 0 0 0 0 0 0 0 0 0 0 0 0 0 0 0 0 0 0 0 0 0 4 0 0 14 204 172 156 148 107 110 94 87 99 62 135 236 296
0 0 0 0 0 0 0 0 0 0 0 0 0 0 0 0 0 0 0 0 0 0 0 0 0 0 0 2 0 0 60 205 107 16 32 143 134 105 82 80 108 114 97
0 0 0 0 0 0 0 0 0 0 0 0 0 0 0 0 0 0 0 0 0 0 0 0 0 0 2 1 5 10 29 79 146 167 75 102 314 343 185 104 105 108 72
0 0 0 0 0 0 0 0 0 0 0 0 0 0 0 0 0 2 0 0 0 0 0 0 0 0 5 6 6 19 20 5 47 319 179 134 234 252 145 191 134 111 74
0 0 0 0 0 0 0 0 0 0 0 0 0 0 0 0 0 0 0 0 0 0 0 0 0 0 0 7 5 13 19 13 15 43 72 263 286 230 147 135 102 80 70
0 0 0 0 0 0 0 0 0 0 0 0 0 0 0 0 0 0 0 0 0 1 7 4 0 0 0 6 6 6 19 9 13 10 21 76 100 19 57 52 12 26 59
0 0 0 0 0 0 0 0 0 0 0 0 0 0 0 0 0 0 0 0 0 0 0 4 4 0 7 11 9 4 3 6 14 11 21 1 20 17 4 8 6 1 0
0 0 0 0 0 0 0 0 0 0 0 0 0 0 0 0 0 0 0 0 0 0 0 0 0 0 0 7 8 16 7 0 3 4 6 4 0 1 25 1 4 11 37
0 0 0 0 0 0 0 0 0 0 0 0 0 0 0 0 0 0 0 0 0 0 1 5 1 0 0 0 0 0 4 8 12 9 2 0 0 1 0 0 0 2 16